sat.trackr.live / text

‹ back to catalog

STARLINK-3741

NORAD 52619 · 2022-052X

PAYLOAD ACTIVE UNKNOWN

§ Identity

Operator
Country
US
Launch date
2022-05-14
Launch site
AFETR
Launch vehicle
Mass (kg)
RCS (m²)

Purposes: comms

External: N2YO · Heavens-Above · Gunter

§ Orbital elements

Epoch: 2026-09-20T01:47:22.073856Z

Period
93.85 min
Inclination
53.1608°
Eccentricity
0.0000995
Mean motion
15.34386194 rev/d
Perigee alt
462.1 km
Apogee alt
463.4 km
Semi-major
6,840.9 km
B*
4.0327e-5
RAAN
101.6300°
Arg perigee
102.5550°
Mean anomaly
257.5564°
Rev number
24,053

§ Raw data

STARLINK-37411 52619U 22052X   26263.07456104  .00000986  00000+0  40327-4 0  99922 52619  53.1608 101.6300 0000995 102.5550 257.5564 15.34386194240532

JSON: /api/v1/satellites/52619 · /tle

For live sub-satellite position, see the globe view (requires WebGL).

§ Visibility from observer

Set your observer location to see the next 7 days of passes ≥ 10°. The values pass through the URL so the page stays shareable.

No JS? Fill the form by hand. The geolocation button needs JavaScript.